Theta_e
323 322 324 326 326 324 320 315 313 316 316 315 315 316 316 316 316 314 314 313 312 309 307 307 307 308 311 316 318 319 319 319 319 319 320 320 320 320 321 321 320 320 320 320 320 318 316 316 315 315 317 319 320 321 321 320 316 312 311 311 312 311 311 310 309 309 309 309 308 309 309 308 309 309 309 309 309 309 309 309 309 308 308 308 308
323 324 325 325 324 322 318 315 315 317 316 315 315 315 315 315 314 313 311 311 309 307 306 306 307 309 313 316 317 318 319 319 318 318 319 321 322 321 321 318 317 316 315 316 317 317 316 316 316 316 316 317 318 319 320 320 319 316 313 312 313 313 312 311 310 309 309 310 309 310 310 308 308 310 309 309 309 309 309 309 308 308 308 308 308
325 324 324 324 322 321 318 316 317 318 317 317 315 314 314 314 314 313 310 308 307 306 306 306 306 310 314 317 318 318 319 319 319 318 317 320 322 322 321 318 317 316 314 313 314 315 314 315 316 316 316 316 317 318 320 320 320 318 315 314 314 313 312 312 311 309 309 310 310 311 311 309 308 309 309 309 309 309 309 309 308 308 308 308 308
325 324 324 323 321 320 318 316 318 319 319 318 316 314 314 314 313 312 309 307 306 306 306 305 305 308 313 316 317 318 318 317 318 317 316 316 318 320 322 321 319 318 316 315 314 314 313 313 314 315 315 315 315 317 318 319 320 318 316 315 314 314 313 312 312 310 309 310 312 313 312 309 308 309 309 309 309 309 309 309 309 309 309 308 308
324 323 323 323 321 320 319 317 319 320 320 320 317 314 313 314 313 310 307 306 306 306 306 305 304 307 312 315 315 315 315 314 314 315 315 314 313 313 318 321 321 320 318 316 315 313 312 312 314 314 314 315 314 315 316 316 317 316 315 314 314 314 314 313 312 311 310 310 313 314 312 310 309 309 309 309 309 310 310 309 309 309 309 309 309
322 322 323 323 322 321 320 319 320 321 321 321 319 314 312 313 312 308 306 307 307 308 309 308 307 307 308 310 312 312 311 311 311 312 313 313 309 307 310 315 317 316 314 313 312 310 310 311 313 314 314 314 314 314 314 314 314 313 313 313 313 313 314 313 313 312 310 311 313 314 313 312 310 310 310 310 310 310 310 310 310 310 310 310 309
322 322 322 324 323 322 321 320 321 322 321 321 319 314 312 314 312 307 306 308 309 310 311 311 310 310 308 307 307 308 308 308 308 308 309 309 307 305 306 309 310 311 310 311 311 310 309 310 312 313 313 314 314 313 313 313 312 312 312 313 313 314 314 313 312 311 311 313 314 314 313 312 311 310 311 311 310 310 310 310 310 310 310 310 310
323 322 323 324 324 322 321 320 321 321 321 321 319 313 311 313 310 306 307 310 310 311 312 312 312 312 311 310 308 307 307 307 307 307 306 306 305 305 305 306 308 310 311 311 312 312 311 311 311 312 312 312 313 313 313 313 312 313 313 313 313 314 314 314 313 312 313 314 314 314 313 312 311 311 311 311 311 312 312 312 311 311 311 310 310
323 323 323 324 323 322 320 318 319 321 322 321 317 311 311 311 307 305 308 311 312 312 312 312 313 313 313 313 312 311 310 309 308 307 307 306 306 306 306 307 309 311 312 311 312 313 313 313 312 312 312 313 313 313 313 313 313 313 313 313 314 314 314 314 314 314 314 314 314 314 314 313 312 312 311 312 312 313 313 312 312 311 311 311 310
324 324 324 324 322 321 319 317 319 321 321 318 313 312 312 309 306 306 309 312 314 314 313 314 313 313 313 313 313 313 313 312 311 310 309 308 308 309 309 310 310 311 312 312 312 312 313 313 313 313 313 312 312 311 311 311 311 311 312 312 313 314 314 314 315 314 314 314 314 314 314 313 313 313 313 313 312 313 313 313 312 312 311 311 310
324 324 324 324 322 320 318 318 320 321 318 316 316 315 312 307 306 308 309 312 315 314 315 315 314 314 314 313 313 312 313 313 313 312 312 310 310 310 310 310 311 311 311 311 311 311 312 312 312 312 312 311 311 310 310 310 310 310 311 311 312 312 313 313 314 314 314 314 314 314 314 313 314 313 314 313 313 313 313 313 313 313 313 312 311
323 323 323 323 321 320 319 320 320 318 317 318 319 317 310 306 308 309 309 312 314 315 316 316 315 315 314 313 314 313 313 314 313 313 313 313 312 312 311 311 311 310 310 310 310 310 310 310 310 311 311 310 311 311 311 311 311 311 312 313 314 314 314 313 313 314 314 314 314 314 314 314 314 314 314 314 314 314 314 314 314 314 314 313 313
322 322 322 322 321 320 320 320 318 317 318 320 321 319 314 310 311 312 313 315 316 316 316 317 317 316 315 314 314 314 314 314 314 314 314 314 314 314 313 313 313 312 312 312 311 311 311 311 311 311 311 311 311 311 311 311 311 311 312 314 315 316 316 316 315 315 315 315 314 314 314 314 314 314 314 314 314 314 314 314 314 314 314 313 312
321 321 321 320 320 320 320 319 317 318 320 320 321 321 319 317 317 318 318 319 319 319 318 317 318 318 317 316 315 314 315 314 314 315 314 314 315 314 315 315 314 314 314 313 313 313 313 314 313 313 313 312 312 312 312 312 312 312 313 314 315 315 316 316 317 317 317 316 316 316 315 315 314 314 314 314 314 314 313 313 314 314 314 313 312
317 318 318 318 318 318 319 319 319 319 320 320 320 321 320 320 321 321 321 321 321 321 320 319 319 319 318 317 316 315 315 315 315 315 315 315 315 315 316 316 316 316 315 315 314 314 314 314 314 314 315 314 314 314 313 313 313 313 314 314 315 316 316 316 317 317 317 317 317 317 317 316 315 315 314 314 313 313 313 313 313 313 313 313 312
313 312 313 314 315 315 316 318 318 318 318 318 319 319 319 319 319 319 319 321 321 321 321 320 320 320 319 318 317 317 316 317 316 316 316 316 316 317 317 317 317 317 317 317 317 316 315 315 314 314 314 314 314 314 314 314 314 314 315 315 316 316 316 317 317 317 317 317 318 317 317 316 316 316 315 315 314 313 313 313 313 313 313 312 312
311 309 310 311 311 311 312 313 314 315 314 314 315 316 315 316 316 316 316 318 319 319 320 320 320 320 320 319 319 319 318 318 318 318 318 318 318 318 318 318 318 318 318 318 318 318 317 317 316 316 315 315 315 315 315 315 315 315 316 316 317 317 317 318 318 318 317 317 317 317 317 316 316 315 314 314 314 313 313 313 313 313 312 312 311
308 308 308 309 310 309 310 311 313 313 312 313 313 313 312 312 312 311 312 314 317 318 318 319 319 319 319 319 319 319 319 319 319 319 319 319 319 319 319 319 319 319 319 319 318 318 318 318 318 318 318 318 317 316 316 315 315 315 316 316 317 318 318 318 318 318 318 317 317 317 317 316 316 314 313 313 313 312 313 312 311 311 311 310 310
307 307 306 308 308 307 306 307 309 308 307 309 311 310 310 310 309 308 309 310 312 314 316 317 318 318 318 318 317 317 316 316 316 317 317 318 318 318 318 318 318 319 319 319 318 318 318 318 318 318 318 318 319 318 318 317 316 316 316 317 318 317 317 317 317 317 317 317 317 317 316 315 315 313 311 311 311 311 312 311 309 309 309 309 309
306 305 304 306 307 306 306 305 306 305 304 305 305 305 305 307 307 308 308 308 309 311 312 313 315 315 315 315 315 315 315 314 314 314 314 315 315 315 316 316 316 316 317 317 317 317 317 318 318 318 318 318 318 318 318 318 318 318 318 318 318 317 317 317 317 317 316 315 316 316 315 314 313 312 310 310 310 310 311 310 309 309 309 308 305
302 302 302 303 304 305 306 306 305 305 304 304 304 304 304 304 304 304 305 305 306 307 307 308 309 309 310 310 311 311 312 312 312 312 311 312 313 313 313 313 314 314 314 314 314 314 314 315 316 316 317 317 317 317 316 317 317 317 317 317 316 316 316 316 317 317 315 315 314 314 314 313 312 312 311 310 310 310 310 309 309 308 306 303 301
300 300 300 301 301 302 303 303 303 303 302 302 301 302 303 302 302 302 302 302 303 304 305 305 305 304 304 304 304 305 305 306 306 306 306 306 307 307 308 309 310 311 311 312 312 312 311 312 312 314 315 316 315 315 315 315 314 314 314 314 313 313 314 316 316 316 315 315 314 313 313 312 312 312 311 310 309 309 308 308 306 304 302 300 299
299 299 299 299 299 299 299 300 300 300 300 300 300 300 300 300 300 300 300 301 302 302 303 303 303 302 302 302 301 300 300 300 301 301 301 301 301 301 302 302 303 304 305 306 307 308 309 310 310 312 313 314 314 314 313 313 312 312 312 311 312 313 314 315 316 316 316 315 313 313 312 312 312 312 311 310 309 308 307 305 303 301 300 299 299
298 298 298 298 298 298 298 298 298 298 298 298 298 298 299 299 299 299 299 299 299 299 300 300 300 300 300 300 299 299 299 299 299 299 299 299 299 299 299 299 299 299 299 300 301 301 302 304 305 306 308 310 310 311 311 310 310 311 311 310 312 314 315 315 315 315 315 314 313 312 312 312 312 311 310 309 307 306 304 303 301 300 299 299 298
297 297 296 297 297 297 297 297 297 298 298 298 298 298 298 298 298 298 298 298 298 298 298 298 298 298 299 299 298 298 298 298 299 299 299 299 299 299 299 299 299 298 298 298 298 298 299 299 300 301 302 303 305 307 308 308 309 310 310 310 311 312 314 315 315 314 314 313 313 313 312 312 311 309 308 307 305 304 302 301 300 300 299 299 299
296 296 296 296 296 296 297 297 297 297 297 297 297 297 298 298 298 298 298 298 298 298 298 298 298 298 298 298 298 298 298 298 298 298 298 298 298 298 298 298 298 298 298 298 298 298 299 299 299 300 300 300 301 302 304 306 307 309 310 311 311 312 313 314 313 313 313 313 313 312 312 311 309 307 305 304 303 302 301 300 300 299 299 299 298
295 295 296 296 296 296 296 296 296 296 297 297 297 297 297 297 297 297 297 297 297 297 297 297 297 297 297 297 297 297 297 297 298 298 298 298 297 297 297 297 298 298 298 298 298 298 298 299 299 300 300 300 300 300 301 303 305 307 309 311 312 312 313 313 313 313 313 313 313 312 311 308 307 305 304 303 302 301 300 299 299 299 298 297 296
296 295 295 295 295 295 295 295 296 296 296 296 296 296 296 296 296 297 297 297 297 297 297 297 297 297 297 297 297 297 297 298 297 297 297 297 297 297 297 297 297 297 297 297 297 297 298 299 299 300 300 300 301 301 301 302 304 306 308 310 311 312 312 313 313 313 313 312 312 311 308 306 305 304 303 302 301 300 299 299 298 298 297 295 294
296 295 295 295 295 295 295 295 295 295 295 295 295 295 295 296 296 296 296 296 296 296 297 297 297 297 297 297 297 298 298 297 297 297 297 297 297 297 297 297 297 297 297 297 297 297 297 298 299 300 301 301 301 302 302 302 303 304 306 308 310 311 312 312 313 313 312 312 311 309 307 305 304 303 302 301 300 299 299 298 297 296 295 294 293
296 296 295 295 295 295 295 295 295 295 295 295 295 295 295 295 295 295 296 296 296 296 296 296 296 297 297 297 297 297 297 297 297 297 297 297 297 297 297 297 297 297 297 297 297 297 297 298 299 300 301 301 302 302 302 303 303 304 305 307 308 310 311 312 312 312 312 311 310 309 307 305 303 302 302 300 299 299 298 297 296 294 293 293 292
296 296 296 295 295 295 295 295 295 295 294 294 295 295 295 295 295 295 295 295 295 295 295 295 295 295 296 296 296 296 296 296 296 296 296 296 296 296 297 297 297 297 297 297 297 298 298 299 300 300 300 301 302 302 302 302 302 303 304 306 307 309 310 311 311 311 311 310 309 307 305 304 303 302 300 299 298 298 297 295 294 293 292 292 292
296 296 295 295 295 294 295 295 295 295 294 294 295 295 295 295 295 295 295 295 295 295 295 295 295 295 295 295 295 295 296 296 296 296 296 296 296 296 296 297 297 297 297 298 298 299 299 300 300 300 300 301 302 302 302 301 301 301 303 304 306 308 309 310 310 309 308 307 307 305 303 302 302 300 299 298 298 296 295 293 293 292 292 292 292
296 296 295 295 295 294 295 295 295 295 294 294 295 295 295 295 295 295 295 295 295 295 296 296 296 296 296 296 296 296 296 296 296 296 297 297 297 296 296 296 297 297 298 298 299 300 300 300 300 300 300 301 301 301 302 301 301 301 302 303 305 306 306 307 308 307 305 303 303 302 301 300 300 299 298 297 295 294 293 292 292 292 292 292 292
296 296 296 296 295 295 294 295 295 294 293 294 294 294 295 295 295 295 295 296 296 296 297 297 297 297 297 296 296 297 297 297 297 297 297 297 297 297 297 297 297 298 298 298 299 300 300 301 301 300 300 300 300 300 301 301 301 301 302 302 303 304 304 304 305 304 302 301 300 300 299 299 298 297 296 295 293 293 292 292 292 292 292 292 292
297 296 296 296 295 295 294 295 295 294 293 293 293 294 294 294 294 294 295 296 297 297 297 298 297 297 297 297 297 298 298 298 298 298 298 298 298 298 297 297 298 298 298 298 299 299 300 300 300 300 300 299 299 300 301 301 301 301 301 301 301 302 302 301 301 300 300 299 298 298 298 297 296 295 294 294 293 292 292 292 292 291 291 292 292
297 296 296 296 295 294 295 295 294 293 293 293 294 294 294 294 295 295 296 296 297 297 297 298 297 297 297 297 297 297 298 298 298 298 298 298 298 298 298 298 298 298 298 298 299 299 299 300 300 300 299 299 299 300 301 301 300 300 300 300 300 300 300 299 298 298 298 297 297 296 296 295 294 293 293 293 292 292 292 291 291 291 291 292 292
297 296 296 296 294 294 295 295 294 293 293 294 294 294 294 295 295 296 296 296 296 296 297 297 297 297 297 297 297 297 297 297 297 297 298 298 298 299 299 299 299 299 299 299 299 299 299 299 299 299 299 299 299 300 301 300 299 299 299 300 300 300 299 299 298 298 298 297 296 296 295 294 293 293 293 292 292 291 291 291 290 291 291 292 292
296 296 296 295 294 294 295 295 294 293 294 294 294 294 295 295 296 295 295 296 296 296 297 297 297 297 297 297 297 297 297 297 297 298 298 298 299 299 299 299 299 299 299 299 298 298 298 298 298 298 299 300 300 300 300 299 298 298 299 299 300 299 299 299 299 298 298 297 297 295 294 293 293 292 292 291 291 290 290 290 290 291 291 291 292
296 296 296 295 294 294 295 294 294 293 294 294 294 295 295 295 295 295 295 295 295 296 296 296 296 296 297 297 297 297 297 297 297 297 297 298 298 299 298 298 298 299 298 298 298 298 297 297 298 299 300 300 300 300 299 299 298 298 298 299 299 299 298 298 298 297 297 297 296 295 293 293 292 292 291 290 290 290 290 290 290 291 291 291 291
296 296 296 295 294 294 295 294 294 293 293 294 295 295 295 295 295 294 294 294 294 295 296 296 296 296 296 297 297 297 296 297 296 296 296 297 298 298 297 297 298 298 298 298 298 298 297 298 298 299 299 299 299 299 298 298 297 297 298 298 298 298 297 297 297 297 296 296 294 293 292 292 291 290 290 289 289 289 289 290 290 291 291 291 290
296 296 296 294 294 295 295 295 294 293 293 294 295 295 295 295 294 294 294 294 294 295 296 295 295 295 295 296 296 296 295 295 294 295 295 296 297 297 297 297 297 297 297 297 298 298 298 298 298 298 299 298 298 298 297 296 297 297 297 296 296 296 296 296 296 296 295 294 293 292 292 291 290 289 289 289 289 288 289 289 290 290 290 290 289
296 296 295 293 294 295 295 295 294 294 293 293 294 295 295 295 294 294 294 294 294 295 295 294 294 294 294 294 294 294 294 293 293 293 294 295 296 296 296 296 296 296 297 297 297 297 298 297 297 298 298 297 297 297 296 296 296 296 296 296 296 296 297 296 296 295 293 292 292 291 291 290 289 289 289 289 288 288 289 289 290 290 289 289 289
296 295 294 293 294 295 295 295 295 295 294 293 294 294 295 294 294 294 293 294 294 295 294 294 294 294 294 294 293 293 293 293 293 293 294 294 295 295 295 295 296 296 297 297 297 297 298 297 297 297 297 296 296 296 296 296 296 296 296 296 297 297 296 295 294 293 293 292 292 291 290 290 289 289 289 288 288 288 289 289 289 289 289 289 289
296 295 293 292 293 295 295 295 294 294 294 294 294 294 294 294 293 293 293 293 294 294 294 294 294 294 294 294 294 293 293 294 294 294 294 294 295 295 295 296 296 297 297 297 297 297 297 297 297 296 296 295 295 295 295 295 296 296 297 297 296 295 294 293 293 293 293 292 292 292 291 290 289 289 288 288 288 288 289 289 289 289 289 289 289
295 294 293 292 293 295 295 294 294 294 294 294 294 294 294 294 293 293 293 293 293 294 294 294 294 294 294 294 294 294 294 295 295 295 295 294 294 295 295 296 296 296 297 297 297 297 297 297 296 296 296 295 295 295 296 296 296 296 296 295 294 293 293 293 293 293 292 292 292 292 290 289 289 288 288 287 288 289 289 289 289 289 289 289 289
295 294 293 292 293 294 295 294 294 294 294 293 294 294 294 294 293 293 292 292 293 293 293 294 294 293 293 293 294 294 294 294 295 295 295 294 294 294 295 296 296 296 296 296 296 296 296 296 296 296 296 296 295 296 296 296 295 294 294 293 293 292 292 292 293 293 293 292 292 291 289 288 288 287 287 288 288 289 289 289 289 289 289 289 289
294 294 293 293 293 293 294 294 294 294 294 293 294 294 294 293 293 292 292 292 292 292 293 293 293 293 292 293 293 294 294 294 294 294 294 294 294 295 295 295 296 295 295 295 295 295 296 296 296 296 296 296 295 295 295 294 294 293 293 292 292 292 292 292 292 292 292 291 290 289 288 287 287 287 288 288 288 288 289 289 289 289 288 289 288
295 294 294 293 292 292 293 294 294 293 293 293 293 294 294 293 292 292 292 291 291 292 292 293 292 292 292 292 293 294 294 294 293 293 293 294 294 294 294 295 295 295 295 295 295 295 295 295 295 295 295 295 295 294 294 294 293 293 292 292 292 292 292 292 292 291 290 289 288 287 287 287 287 287 288 288 288 288 288 289 288 288 289 289 289
295 294 294 293 292 291 292 293 294 293 292 292 292 293 293 292 292 292 292 292 292 292 293 293 292 292 292 292 293 293 293 293 293 293 293 293 293 294 294 294 294 294 294 294 294 294 294 294 294 294 294 294 294 293 293 293 293 292 292 292 292 291 291 291 290 288 287 287 287 286 286 287 288 288 289 289 289 289 289 289 289 288 289 289 289
295 295 294 293 292 291 291 292 294 294 293 292 292 293 292 292 291 292 292 292 293 293 293 293 293 292 292 292 292 292 292 293 292 293 293 293 293 293 293 293 293 293 293 293 293 292 292 293 293 293 292 292 292 292 292 292 292 292 292 291 290 289 288 288 287 286 286 287 287 287 287 288 289 289 289 289 289 289 289 289 289 289 289 289 289
295 295 294 294 293 292 291 291 293 294 294 293 293 292 292 291 291 292 292 293 293 293 294 293 293 293 292 292 292 292 292 292 292 292 292 292 292 292 292 292 292 292 292 291 291 291 291 291 291 291 290 290 290 290 290 290 289 289 288 288 287 286 286 287 287 288 288 288 289 289 289 289 289 290 290 290 290 290 290 289 289 289 289 289 289
Wind_Speed
24 22 20 19 17 15 14 13 13 12 10 9 8 7 6 5 3 3 1 1 1 1 2 3 4 6 8 8 8 8 8 8 7 6 5 5 6 6 7 7 7 6 7 7 8 9 8 6 6 7 8 10 11 13 14 13 11 11 12 9 7 5 6 5 2 2 6 9 9 8 7 8 8 8 8 7 7 7 5 4 2 1 1 2 3
28 25 23 21 19 17 16 15 14 13 11 9 8 7 7 5 3 2 2 2 2 3 4 4 5 7 9 8 8 9 8 7 7 5 5 5 6 7 7 6 5 5 6 6 7 6 5 4 4 6 7 8 10 12 13 12 12 12 13 11 9 8 8 9 8 5 4 6 9 9 8 9 9 9 8 7 7 7 6 5 4 4 4 5 6
28 26 24 22 21 19 17 16 15 13 11 9 7 7 7 5 3 2 2 3 4 6 5 5 6 8 9 9 8 7 6 5 5 4 4 4 5 7 7 6 5 4 4 4 5 5 4 4 4 5 7 7 9 11 12 11 11 12 13 11 10 10 10 11 11 10 6 5 7 9 9 9 10 10 9 8 9 8 7 7 7 8 8 8 9
26 24 23 21 20 19 18 17 16 13 11 9 7 7 7 6 4 3 3 5 6 6 5 5 5 7 9 9 7 6 5 4 3 4 5 5 5 7 8 8 7 6 5 5 5 6 6 6 6 6 7 8 9 10 11 11 11 12 12 11 10 10 11 12 13 13 10 7 7 8 9 9 11 11 11 11 10 9 9 9 9 10 11 11 11
27 25 23 20 19 19 17 16 15 12 9 7 6 7 7 6 5 5 5 6 7 6 5 5 5 7 9 8 7 5 4 4 4 4 5 6 6 7 8 9 9 9 8 8 8 9 9 8 7 7 7 8 9 10 11 11 11 11 10 10 10 10 11 12 14 15 14 11 9 8 9 10 12 13 13 12 12 12 11 11 11 12 12 12 13
29 28 25 22 21 20 17 15 15 12 9 7 6 6 8 7 5 6 6 7 7 7 7 7 6 6 7 7 6 5 4 4 4 5 6 7 7 7 9 10 10 9 8 7 7 8 10 10 9 8 8 8 9 9 9 9 9 10 10 10 10 10 11 13 15 16 16 14 11 10 10 11 13 14 15 14 14 14 13 13 13 13 13 13 14
29 29 27 26 24 22 19 17 15 13 10 8 6 7 8 8 6 7 8 8 9 9 9 8 8 7 6 5 5 5 4 4 4 5 6 6 6 7 9 9 9 8 7 6 5 6 8 11 10 9 9 9 9 9 10 10 11 11 10 10 10 10 10 12 13 14 15 14 13 12 11 12 14 15 15 15 16 16 16 15 15 15 15 15 15
27 27 27 27 25 22 20 17 13 12 12 9 7 7 9 9 7 8 9 9 9 9 8 7 7 7 7 6 5 5 4 3 4 4 5 6 6 7 8 9 9 8 7 7 6 6 7 9 10 10 10 10 11 11 11 11 10 10 10 11 10 10 10 10 11 13 14 15 15 14 13 14 16 16 17 17 18 18 17 16 16 16 16 17 17
27 28 27 26 25 22 21 20 16 13 11 10 10 11 10 9 9 10 10 10 10 8 6 5 5 6 6 6 6 6 5 3 2 4 5 5 6 7 8 9 9 8 8 8 8 8 8 8 9 9 10 10 11 11 11 11 11 11 12 12 11 11 12 12 13 15 16 16 16 16 15 16 17 18 19 19 19 18 17 17 18 18 18 19 19
30 29 27 25 25 23 23 23 19 14 12 11 12 13 12 11 11 11 12 11 9 8 6 5 4 4 4 4 5 5 6 5 3 2 3 5 6 7 7 7 8 8 8 9 9 9 9 10 10 10 10 11 11 12 12 13 14 14 14 14 14 13 14 15 16 17 18 19 19 19 19 19 19 19 20 20 20 19 19 19 19 19 20 20 21
29 28 26 24 24 24 24 22 19 15 14 15 15 14 13 13 13 12 13 13 11 9 7 6 6 5 4 3 3 4 5 5 4 3 3 3 5 7 7 8 8 9 9 10 10 10 11 11 12 13 13 13 14 14 14 15 15 16 16 16 16 16 16 17 18 19 20 21 21 22 22 22 21 21 21 21 21 21 21 21 21 21 22 22 22
25 25 24 22 21 21 22 21 19 18 18 17 16 14 13 13 13 13 14 14 13 11 9 8 8 7 6 5 4 4 4 3 3 2 2 3 4 5 6 7 8 9 10 10 11 11 12 13 14 15 15 16 16 16 16 16 16 17 17 17 17 17 18 18 19 19 20 21 21 22 23 23 23 23 23 23 24 24 24 24 24 23 23 23 23
22 21 20 19 19 18 19 19 19 20 20 18 17 15 14 14 14 14 14 14 13 12 11 10 9 8 8 8 7 7 7 7 7 7 7 7 7 7 7 8 9 9 10 11 11 11 12 13 14 15 16 17 18 18 18 19 19 19 18 19 19 19 19 19 19 20 20 21 22 23 23 24 23 23 23 24 25 26 27 27 25 24 23 23 23
20 20 19 18 17 17 17 16 17 18 18 17 17 16 14 14 14 13 13 13 12 13 13 12 10 9 10 10 10 11 11 11 12 12 12 12 11 11 11 12 12 13 13 13 14 14 14 14 15 15 15 16 18 19 19 20 20 21 20 20 21 21 21 22 22 22 22 22 23 24 25 25 25 24 23 23 23 26 27 26 25 24 24 24 24
22 21 20 19 18 17 16 16 16 16 15 15 17 17 15 14 14 13 13 13 12 12 12 12 11 10 11 12 12 13 13 14 14 14 15 15 14 14 14 15 15 16 16 17 18 18 19 19 19 19 18 18 19 20 21 22 23 23 23 23 23 23 24 25 25 26 25 25 25 26 26 27 27 27 27 24 24 26 26 25 24 24 23 24 25
23 22 21 19 17 15 14 15 15 14 13 12 13 14 14 13 13 12 12 13 13 12 12 12 11 11 11 12 13 14 15 15 16 16 17 17 17 17 18 18 19 19 19 19 20 21 22 23 23 24 23 22 22 23 24 25 26 26 26 26 26 26 27 27 28 29 29 29 29 29 30 29 29 30 30 26 24 25 25 23 24 24 24 25 24
20 19 19 17 14 13 13 12 12 12 10 9 10 11 11 11 11 10 10 11 12 11 11 11 11 11 11 11 12 14 15 17 18 19 20 20 21 21 22 23 24 25 25 24 24 24 24 25 26 26 27 26 26 26 27 28 29 29 30 30 30 31 31 30 30 30 31 32 33 33 33 33 34 35 33 29 25 24 24 26 27 27 25 24 24
16 14 15 14 12 10 10 9 8 6 4 4 5 6 6 6 7 7 7 8 9 9 9 9 10 11 11 12 12 13 15 17 18 20 21 22 23 24 25 26 27 28 28 29 29 29 29 29 29 29 29 29 28 29 29 31 32 32 33 33 33 34 33 32 32 33 34 35 35 34 34 34 34 33 30 27 24 23 24 26 26 24 23 23 22
11 9 10 10 8 7 7 6 4 2 2 1 3 4 5 5 5 3 2 4 5 7 8 9 10 11 12 13 13 14 15 16 17 18 20 21 22 23 24 26 27 27 29 30 30 30 31 31 32 32 32 32 30 29 29 30 31 31 32 33 34 35 34 33 34 35 36 35 34 32 32 32 31 28 26 25 22 22 24 25 23 21 21 21 21
8 7 8 7 5 3 3 3 3 4 4 2 4 5 5 7 8 8 9 9 7 7 9 10 11 12 13 15 15 16 17 17 18 19 20 21 23 24 25 27 28 29 30 31 32 32 31 31 31 31 32 32 31 29 28 28 28 29 29 31 33 33 32 32 32 32 33 33 32 31 31 30 27 24 23 23 23 23 26 26 23 21 21 21 20
9 8 8 7 5 3 2 4 6 7 8 8 8 9 9 10 10 10 12 13 12 11 12 14 15 16 17 18 19 20 21 22 23 23 24 25 26 28 29 30 31 33 33 33 34 35 35 34 33 31 30 30 30 30 28 27 27 27 29 30 31 31 30 29 28 28 28 29 30 30 29 28 26 24 23 24 25 25 26 24 21 20 19 18 17
9 9 8 7 7 6 5 6 7 8 9 10 10 11 12 13 13 13 14 15 15 16 17 18 19 20 20 21 22 23 24 26 27 27 28 29 30 31 32 33 34 36 37 37 37 38 38 38 37 35 33 32 31 31 30 29 28 29 29 29 29 30 30 28 27 26 26 27 29 29 28 27 26 26 26 27 26 25 23 21 19 18 16 16 15
10 10 10 9 9 9 9 9 10 10 11 12 12 12 13 14 15 15 16 17 17 18 19 20 21 22 23 23 24 24 25 26 26 27 28 29 30 31 33 34 35 37 38 39 40 40 41 41 40 40 38 37 36 35 34 32 32 32 31 29 27 27 28 28 27 26 27 27 28 29 28 27 27 28 28 27 24 22 21 19 17 16 15 15 15
11 11 10 9 9 9 9 10 11 11 12 13 13 14 14 15 16 17 19 19 20 20 21 22 23 24 25 25 24 24 25 25 25 26 26 27 27 28 30 32 33 35 37 38 39 40 41 41 41 41 41 40 40 39 38 37 36 35 34 31 28 25 26 28 28 28 28 28 29 29 29 28 28 28 26 23 21 20 19 17 16 16 15 14 14
12 11 10 10 9 9 9 9 10 10 11 12 13 14 14 15 16 16 17 18 19 20 21 21 22 23 24 24 24 24 24 24 24 24 24 24 25 26 27 28 29 32 34 36 37 38 38 39 39 39 39 40 40 40 40 40 39 38 36 34 31 27 26 27 28 28 28 29 30 31 29 28 27 25 23 21 20 19 18 16 16 15 14 14 14
11 11 11 11 11 11 11 10 10 10 11 11 12 13 14 14 15 15 16 16 17 18 19 20 21 22 23 24 24 25 25 25 25 25 25 25 25 25 26 26 27 28 30 32 34 36 37 36 36 35 35 36 37 38 39 39 39 38 37 35 32 29 27 28 28 28 29 30 32 31 29 27 26 25 23 21 20 18 17 16 15 14 13 13 12
10 10 11 12 12 12 12 12 11 11 11 11 11 12 13 14 14 15 16 17 17 18 19 20 21 23 24 25 25 26 26 26 26 26 25 26 26 25 24 24 24 25 26 28 30 32 34 35 34 33 32 32 32 34 35 36 37 37 36 34 31 28 27 28 28 29 29 29 30 29 28 28 27 26 24 22 20 18 17 16 14 13 12 11 11
10 11 12 12 13 13 13 13 12 12 11 11 11 12 12 13 13 14 15 16 17 17 19 19 20 22 23 24 25 26 26 25 25 25 25 24 24 23 21 20 20 21 22 23 25 28 30 32 33 32 30 29 29 29 30 32 33 34 33 32 30 29 28 27 28 29 28 27 28 28 29 30 29 27 25 22 20 19 17 15 13 11 10 10 10
11 12 13 13 14 15 16 16 15 15 14 13 13 13 12 12 12 11 11 13 14 15 16 17 18 19 21 22 23 24 25 25 24 24 23 22 21 21 20 19 19 20 20 20 22 25 26 28 30 29 28 27 27 25 25 27 28 30 30 29 29 30 31 30 31 32 30 29 29 30 32 32 29 27 25 22 20 18 16 13 11 9 9 9 11
12 12 13 14 15 17 18 18 18 18 17 16 15 13 10 9 9 9 10 11 12 13 14 14 15 17 19 20 21 23 25 25 24 24 23 22 21 20 20 19 19 20 19 19 21 23 23 24 25 25 25 25 25 24 23 23 24 26 27 27 28 29 30 32 34 34 32 30 31 33 34 33 30 28 25 23 20 17 14 11 9 8 9 9 9
11 12 14 15 16 18 19 20 20 20 18 17 15 13 9 7 7 9 10 10 10 11 12 12 13 15 17 19 20 22 23 25 25 25 24 24 23 22 20 19 18 17 17 18 21 22 22 22 22 21 22 23 23 23 23 23 22 22 24 26 28 29 30 31 33 33 34 34 34 35 35 33 31 28 25 21 18 14 12 10 9 8 8 8 8
11 13 14 15 17 19 20 21 21 20 19 16 14 13 11 9 8 9 9 9 8 8 10 12 13 15 16 18 20 21 22 22 23 23 23 22 22 21 20 18 17 16 16 18 20 20 19 20 21 21 22 23 23 23 23 22 21 20 20 22 25 28 30 31 32 33 36 38 38 37 35 33 30 26 22 19 16 13 10 9 8 7 7 7 7
11 12 14 16 17 19 21 21 21 21 19 15 12 12 13 13 12 10 7 5 6 7 8 11 12 13 14 15 17 19 21 21 21 20 19 19 20 19 17 15 14 14 15 18 20 19 18 19 20 21 22 22 22 20 19 19 18 17 18 20 24 27 29 31 30 31 35 39 39 36 34 30 26 23 20 16 13 11 9 8 7 6 6 7 7
10 12 15 16 17 19 21 21 20 20 19 15 11 11 12 13 15 13 9 7 7 7 9 10 10 11 12 13 16 18 20 22 21 20 19 18 18 18 16 13 11 13 16 18 20 20 19 19 20 21 20 20 18 15 14 15 15 16 18 21 23 26 28 29 29 30 33 36 33 30 28 26 23 21 18 14 12 10 9 7 6 5 6 6 6
10 12 15 16 16 19 20 19 18 20 20 16 13 11 11 12 13 14 13 14 13 12 11 11 12 12 12 13 15 17 18 19 18 17 16 16 16 16 15 12 11 13 16 18 20 21 20 20 21 20 19 17 15 12 11 12 13 15 18 20 21 23 25 27 28 30 32 31 27 24 23 22 19 16 13 11 10 9 7 6 5 5 5 6 7
11 13 14 15 16 19 19 17 16 17 18 16 14 12 11 11 13 13 13 15 15 14 13 12 12 11 11 13 15 17 16 16 16 14 14 14 15 15 15 14 13 14 15 17 19 20 20 19 19 17 15 13 12 10 10 11 12 15 18 18 17 17 18 21 24 26 26 24 22 21 19 17 15 13 11 10 8 7 6 6 6 5 5 6 6
11 13 14 15 17 18 17 14 13 15 16 15 14 12 10 11 13 13 13 14 15 14 14 13 12 12 12 13 16 17 16 15 14 13 12 12 13 14 15 15 15 14 14 14 15 16 16 16 15 13 10 8 8 9 10 10 10 13 17 15 12 15 20 23 25 24 22 20 19 18 16 14 13 11 10 9 8 7 6 5 4 4 4 5 4
11 13 13 15 17 17 15 12 11 13 14 14 12 10 10 11 12 13 14 15 16 15 14 13 13 14 14 15 16 17 15 13 10 9 9 10 11 12 13 14 13 12 12 12 13 14 13 12 10 8 7 6 7 9 9 8 8 13 15 15 15 18 21 22 22 22 20 19 18 16 14 13 12 11 9 9 8 7 5 3 3 3 3 3 2
11 12 13 15 17 16 13 11 11 11 12 11 10 9 9 11 13 14 15 16 16 16 15 14 14 15 15 16 16 16 16 13 11 10 10 10 11 12 13 13 12 12 12 12 13 14 12 9 7 7 7 6 7 8 7 6 9 13 16 17 18 20 20 20 20 19 18 17 16 16 15 14 12 11 9 8 6 5 3 2 1 1 1 1 1
11 12 13 15 16 14 11 11 11 10 10 9 9 9 10 11 13 15 16 17 17 17 16 14 14 14 15 15 16 17 16 13 11 11 11 10 10 11 12 12 13 14 14 13 11 10 10 8 7 6 6 6 7 7 6 7 11 16 18 19 20 20 20 19 18 17 16 16 16 16 14 12 11 10 8 6 5 4 3 2 1 1 1 3 4
11 12 13 15 15 12 10 10 10 10 8 8 8 9 10 11 14 16 17 17 17 16 14 13 14 14 15 15 15 16 15 13 11 10 10 9 8 10 11 12 14 17 18 17 14 11 8 6 5 5 5 6 7 6 6 10 17 21 23 23 22 21 20 18 17 16 16 16 16 14 11 10 9 8 6 5 4 3 2 1 2 3 5 6 6
11 11 13 14 13 12 10 9 9 8 7 7 7 8 9 11 14 16 18 17 14 12 12 13 14 15 15 15 15 15 15 13 11 10 9 8 7 9 11 13 16 19 21 20 17 14 11 7 6 6 7 6 5 5 7 13 20 24 25 24 22 18 17 16 15 15 16 16 14 11 9 8 7 5 4 3 3 2 1 2 4 6 7 6 5
10 10 12 13 12 11 11 9 8 8 7 6 5 6 8 10 12 16 18 14 10 10 12 13 14 15 15 15 15 15 15 14 13 11 10 8 7 8 11 14 17 19 20 21 20 17 13 10 8 7 7 5 3 6 11 16 21 23 23 21 17 14 14 15 15 16 16 14 11 9 7 6 5 3 2 2 1 1 2 4 5 7 7 5 4
8 10 11 12 11 11 11 10 10 10 10 6 2 3 7 9 11 15 17 11 7 10 12 13 14 15 16 16 16 15 14 14 13 12 10 8 7 8 10 13 15 16 17 18 18 16 14 12 9 6 4 3 8 12 14 17 19 18 17 14 13 14 16 17 17 17 15 11 9 7 6 4 3 2 1 2 2 2 4 5 6 6 5 5 4
7 9 10 11 11 12 12 12 11 11 8 3 1 1 5 7 9 14 15 8 7 10 12 13 14 15 16 18 19 18 17 16 14 11 9 8 7 7 9 11 13 14 15 15 14 12 10 10 11 10 6 4 10 12 11 12 12 12 13 14 16 17 18 17 15 13 11 8 6 5 4 3 2 1 1 2 3 4 5 5 5 5 4 4 4
6 7 9 11 11 11 12 13 12 8 5 4 4 2 4 6 8 13 13 7 8 10 12 13 14 15 15 17 19 19 18 18 17 14 11 9 9 9 11 12 13 13 12 12 11 8 6 7 8 10 11 11 11 12 13 14 16 17 17 17 16 15 15 13 11 9 7 5 4 3 2 2 2 1 2 3 4 5 6 5 5 4 4 4 5
5 7 9 11 11 10 11 13 12 6 5 5 4 3 6 6 8 11 10 5 8 11 13 13 13 13 13 15 17 18 18 19 20 19 17 16 15 14 14 14 14 13 12 11 10 9 10 11 12 13 15 16 15 16 16 17 17 17 16 16 15 13 11 9 7 5 4 2 2 2 1 2 2 2 3 4 5 7 8 6 5 4 5 6 7
4 6 8 10 11 10 10 11 10 6 5 5 4 4 5 6 7 9 6 4 9 12 13 12 12 12 12 14 16 16 16 18 19 21 22 21 20 18 17 16 16 16 16 16 16 16 17 18 17 17 17 16 15 14 14 14 14 13 13 12 11 9 8 6 4 3 2 1 1 1 2 3 3 4 5 6 8 8 8 7 6 6 6 7 7
4 6 7 9 11 10 9 9 9 7 5 5 4 3 3 4 5 6 4 7 11 12 11 11 12 12 13 15 15 15 15 16 18 19 20 20 19 19 18 17 17 16 16 17 17 17 17 16 15 15 15 15 14 13 12 11 11 10 9 8 7 6 5 4 3 3 3 2 3 3 3 4 5 6 7 9 10 9 8 9 9 8 7 7 6
4 6 6 8 10 10 9 8 8 7 5 4 4 2 4 5 3 3 6 8 10 10 10 11 12 13 14 14 14 14 14 15 15 16 16 16 16 16 16 15 15 14 14 15 15 15 14 14 13 13 13 12 12 11 9 8 7 6 6 6 6 6 5 4 3 4 4 5 5 6 7 7 7 7 7 8 9 7 7 7 7 7 7 6 5
5 6 7 7 9 10 10 8 7 6 6 4 2 2 4 3 4 7 7 8 9 8 7 9 10 11 12 13 13 13 12 12 12 12 13 13 13 13 13 12 12 12 12 12 12 12 13 12 12 12 12 12 11 11 9 8 7 6 6 7 7 7 6 6 6 7 8 9 9 9 9 8 7 6 6 5 5 5 4 4 3 3 4 4 4
Wind_Direction
188 189 187 183 186 191 191 188 185 182 178 172 172 171 164 164 169 175 207 294 306 215 179 162 154 152 148 142 143 145 139 135 141 147 154 162 160 158 156 150 150 157 156 155 157 158 156 149 153 170 182 192 196 196 196 194 192 194 201 212 224 225 224 222 212 162 170 181 188 191 189 185 182 184 186 187 193 197 201 218 242 227 222 291 312
185 186 183 181 187 193 192 186 183 182 180 176 175 174 171 172 173 181 211 255 233 199 184 178 168 157 152 149 146 144 138 128 126 128 138 157 162 161 158 149 151 159 156 158 164 167 170 171 170 171 177 194 201 200 201 202 202 204 208 218 230 235 233 232 231 222 208 207 205 204 206 201 196 194 193 194 198 202 208 220 241 261 271 277 282
184 182 179 181 188 192 190 185 181 180 180 180 179 177 176 174 179 205 225 219 203 191 183 180 178 169 161 157 155 150 145 137 130 129 141 164 176 177 174 169 172 183 180 180 187 190 197 207 206 189 183 192 197 196 201 208 213 215 219 230 241 241 239 241 241 239 241 241 227 224 223 215 208 202 197 196 198 204 214 223 237 251 263 270 271
183 180 179 183 187 190 189 185 182 182 181 182 182 180 176 172 186 218 216 196 189 184 181 178 181 180 172 167 168 168 168 168 165 160 160 168 182 189 191 190 191 200 211 221 225 224 226 226 220 205 196 194 195 197 203 209 215 220 229 241 249 248 244 245 247 247 248 252 245 242 237 222 211 210 208 207 208 213 218 226 237 247 257 265 266
184 183 183 185 190 194 191 185 185 184 181 184 186 180 175 174 194 214 199 185 180 169 160 159 164 175 173 170 173 179 184 189 189 185 179 178 186 193 196 198 201 204 211 223 234 236 235 229 222 214 206 199 195 196 200 204 210 219 232 245 251 251 247 244 247 250 250 252 254 249 240 225 214 213 215 215 219 225 228 232 240 246 254 260 263
189 190 188 187 194 198 193 187 189 187 185 197 199 187 179 177 190 203 187 174 164 144 129 124 124 144 162 166 173 182 188 195 196 196 195 196 197 195 194 197 201 203 208 217 225 228 225 220 219 218 214 207 203 203 209 219 233 242 247 253 256 254 248 243 243 247 247 248 250 246 240 235 225 221 220 220 224 231 236 240 243 248 254 258 261
193 194 190 189 194 198 192 186 189 189 186 191 194 188 184 179 184 193 181 167 156 141 126 116 110 110 122 140 161 172 176 184 192 198 203 205 205 198 191 190 194 198 204 210 212 211 209 211 217 224 227 227 229 236 246 256 264 266 265 268 266 259 252 245 240 238 239 243 247 245 240 236 231 228 227 226 228 232 237 242 246 251 257 259 261
195 197 194 193 193 193 189 188 196 199 193 191 196 191 186 181 184 186 177 164 154 144 133 127 120 112 108 112 124 135 145 173 191 197 200 199 199 196 189 188 191 196 200 201 206 209 206 208 217 227 235 242 247 253 261 267 272 274 277 280 278 270 263 254 245 243 245 249 251 248 241 236 232 231 231 232 236 240 243 247 251 255 259 261 263
196 196 195 194 194 195 195 195 202 208 204 206 203 193 186 184 182 182 177 168 157 153 152 149 142 131 122 117 114 111 111 124 175 202 206 200 197 196 197 198 200 203 206 206 209 216 219 220 222 228 237 245 252 258 264 269 273 277 281 284 283 278 272 263 256 256 258 259 258 254 249 245 241 237 237 240 246 250 252 253 254 254 257 259 260
193 191 189 190 193 199 201 199 205 210 205 197 189 184 184 184 182 182 180 175 171 171 176 177 172 160 142 135 128 119 110 109 122 166 203 215 217 215 216 219 219 218 220 220 220 224 230 233 235 236 241 247 254 261 266 271 274 277 280 280 277 274 271 267 265 266 267 267 265 261 258 258 257 255 254 254 254 252 251 252 254 255 256 256 256
186 187 186 186 190 196 197 200 208 209 196 183 178 180 183 182 183 185 186 187 191 195 196 194 190 184 177 164 145 128 119 118 119 128 160 203 222 229 233 238 242 243 240 237 235 235 239 242 245 246 249 254 260 264 268 271 274 276 277 276 274 270 266 264 265 266 268 269 267 263 261 263 265 265 264 262 259 256 253 252 253 256 259 259 259
178 180 181 182 185 188 191 197 200 194 184 179 177 179 180 181 184 187 191 194 202 210 213 209 202 199 198 192 180 166 161 167 174 178 201 220 228 235 238 241 247 252 254 254 253 253 253 255 255 257 259 262 266 269 270 272 273 274 274 274 273 271 268 266 265 264 263 264 265 265 265 267 267 265 264 263 263 261 258 254 255 259 262 263 263
162 167 170 176 180 181 184 188 185 181 180 181 181 179 179 182 185 188 195 201 209 217 222 222 220 219 214 211 212 215 217 220 222 224 232 240 245 247 249 253 255 257 260 262 264 264 264 263 262 262 265 269 271 273 273 274 276 276 276 275 275 275 274 273 273 271 267 263 261 263 265 267 267 267 265 264 265 263 258 255 258 262 263 262 260
144 151 156 160 165 172 178 180 177 177 181 185 187 187 186 186 188 191 195 201 210 217 222 225 228 229 227 229 232 234 236 237 238 239 241 241 243 244 246 250 254 256 258 260 260 261 261 263 263 262 264 269 273 276 277 278 279 279 279 279 279 279 279 279 278 277 274 269 266 265 264 263 264 264 260 258 259 261 260 258 260 263 264 262 258
128 134 140 140 143 152 165 173 172 172 178 184 187 187 187 188 192 197 201 205 209 213 217 221 225 227 229 233 239 243 247 248 250 253 254 254 254 253 252 252 252 253 254 256 258 260 261 262 264 264 265 266 269 272 275 276 278 279 279 279 279 280 281 281 280 279 276 273 272 271 269 265 263 262 260 258 258 260 262 262 259 258 258 256 253
117 116 121 124 128 133 145 161 164 163 169 176 179 180 181 184 189 192 200 206 207 209 214 218 222 227 230 234 241 246 249 252 254 256 257 258 260 261 262 263 263 262 261 261 262 263 264 265 266 267 266 265 266 268 270 272 273 274 275 275 276 276 276 277 277 277 277 275 274 275 274 270 269 270 271 273 270 263 260 255 250 249 249 247 247
112 108 107 111 114 113 117 132 145 153 162 165 165 170 168 170 180 185 191 203 207 209 214 218 224 230 235 240 244 249 253 254 255 257 257 258 259 261 262 264 265 266 266 266 266 265 265 266 267 268 268 267 267 267 267 268 269 270 271 272 273 272 271 272 273 274 276 276 275 276 276 275 275 275 275 275 272 264 255 250 249 250 248 244 245
100 98 100 105 107 99 94 105 125 142 156 160 175 186 174 169 182 181 181 198 211 218 224 228 234 240 244 247 249 252 256 258 259 260 261 262 263 264 265 265 265 266 266 267 267 266 266 265 265 265 266 268 269 270 269 269 269 269 271 272 273 273 272 273 274 275 276 276 274 273 274 275 276 276 273 270 267 261 254 249 246 246 245 245 250
87 78 83 96 101 92 83 84 96 73 47 137 218 254 249 238 248 261 252 234 225 228 237 241 244 248 250 252 253 253 254 257 260 262 264 266 268 269 269 270 269 269 269 270 269 269 268 268 267 266 265 265 266 267 269 270 270 271 272 273 274 274 275 276 277 278 279 278 275 274 274 275 275 274 271 267 261 256 253 246 240 241 247 253 257
74 52 50 62 68 69 63 34 349 345 351 322 279 288 275 259 266 277 280 277 263 251 254 257 257 258 259 259 261 262 262 263 265 267 268 270 271 272 273 273 273 272 272 273 273 272 271 270 269 268 268 267 266 264 265 267 270 271 272 272 273 275 277 278 279 279 279 277 275 273 272 272 271 269 266 263 257 251 249 246 243 246 251 254 257
51 38 32 32 24 8 342 317 312 317 322 317 307 303 296 291 289 284 281 282 278 270 266 265 264 266 268 268 269 269 270 271 271 273 273 273 274 274 274 274 274 274 272 272 273 273 272 272 270 269 268 267 266 264 262 261 263 265 266 267 271 276 278 279 279 278 275 271 269 268 265 262 261 262 263 259 252 248 246 246 247 248 247 250 257
30 20 11 5 358 351 333 317 314 313 313 314 313 309 304 302 302 297 292 290 286 280 275 271 271 274 275 275 275 275 274 274 273 273 274 274 275 274 274 274 273 273 272 271 270 270 270 270 270 269 268 267 266 265 263 260 257 257 259 261 266 271 274 276 276 274 270 264 261 259 256 252 255 262 262 255 248 244 243 242 242 242 245 251 258
19 11 3 355 348 344 338 332 327 322 317 313 312 310 306 303 302 300 297 294 291 288 285 282 281 282 282 283 282 282 281 281 281 279 277 276 275 274 273 272 271 271 271 270 269 268 267 266 266 266 265 265 265 265 264 263 260 259 259 260 262 266 270 271 270 269 266 261 255 249 248 251 257 261 258 251 244 239 236 235 237 241 247 253 257
11 9 7 3 357 350 346 341 334 328 323 318 315 312 307 304 302 300 299 298 298 296 295 293 292 291 290 290 290 289 288 287 286 284 281 278 276 274 273 272 272 271 271 270 270 269 267 266 265 264 263 262 262 263 263 263 263 262 261 260 259 261 262 263 264 264 261 255 249 245 248 254 258 257 249 241 235 231 230 232 237 243 248 253 259
14 17 19 20 17 10 1 351 341 332 325 318 314 312 308 306 303 301 300 299 298 298 299 298 298 297 296 295 294 293 292 291 289 286 284 281 279 277 274 273 272 272 271 271 270 269 269 269 268 266 265 263 262 262 262 262 262 262 261 259 256 255 255 257 260 260 257 250 246 247 251 254 251 244 235 228 225 226 229 232 236 241 247 254 262
19 22 25 25 21 15 8 358 348 339 330 324 319 315 312 310 307 305 304 302 300 300 300 299 299 298 297 296 295 294 294 293 291 290 289 287 285 282 279 276 273 272 272 272 271 270 269 270 271 271 270 269 266 265 264 263 262 261 260 259 255 252 253 255 255 256 255 250 248 250 251 245 235 225 220 219 222 224 228 231 234 239 248 259 271
24 26 26 23 17 13 8 1 355 347 338 333 327 322 318 315 313 311 310 307 305 304 302 301 301 300 299 299 299 298 298 296 296 295 295 295 293 291 287 283 278 274 272 273 273 271 270 270 271 272 274 274 272 270 267 265 263 261 260 260 255 251 253 255 254 254 254 253 253 251 242 229 220 215 214 215 217 220 224 228 233 241 255 271 284
32 30 30 26 21 17 12 7 1 353 345 339 332 327 323 319 318 319 315 310 307 305 303 303 303 303 302 302 302 301 301 301 302 304 305 306 306 304 301 298 292 286 282 278 275 271 269 268 270 272 275 277 278 276 272 269 266 264 262 260 256 253 252 251 251 250 248 247 247 240 224 214 211 211 211 212 214 217 222 227 235 248 266 280 284
36 33 31 27 22 18 13 7 1 355 350 346 340 338 335 331 331 333 327 319 316 312 309 308 307 305 303 303 303 303 304 306 309 312 314 316 315 314 312 310 307 303 299 293 284 275 270 267 267 271 275 279 282 284 280 274 270 266 263 260 256 252 250 249 248 245 241 239 236 225 213 207 207 206 207 210 212 215 220 228 239 253 266 273 275
33 30 25 20 16 13 8 4 360 355 352 348 347 351 354 350 347 349 343 334 328 323 319 316 312 309 306 306 307 308 310 313 315 315 316 315 314 312 311 310 310 309 307 301 293 286 280 273 270 273 278 282 286 287 285 281 274 266 260 256 252 250 249 250 248 243 238 233 226 215 207 205 204 203 205 209 209 211 218 226 236 248 257 264 271
28 22 18 14 11 8 3 360 357 355 353 351 352 357 4 7 2 357 352 344 336 333 331 326 319 315 313 314 315 316 317 318 318 318 317 314 311 309 307 306 307 307 304 300 298 295 290 284 280 280 282 284 284 283 284 285 284 276 264 254 249 248 248 249 249 245 236 224 213 206 203 202 201 200 202 203 204 208 216 223 232 244 252 261 271
22 17 14 11 7 3 360 357 355 354 353 353 355 355 355 356 1 5 5 1 356 350 342 333 326 323 323 322 322 323 323 323 323 323 322 319 316 313 309 305 303 303 302 302 303 301 296 291 288 286 282 280 279 279 280 283 285 285 280 266 254 249 246 245 248 246 233 215 202 197 196 195 194 195 195 196 199 204 210 219 228 239 252 268 281
13 10 10 7 2 359 357 355 353 354 356 356 356 357 356 355 357 4 18 33 27 12 353 338 329 326 328 329 329 329 327 325 324 325 325 325 323 321 316 306 297 295 299 303 305 303 298 294 294 292 285 279 277 279 283 286 286 288 287 277 263 252 243 238 240 238 223 206 195 189 187 186 187 188 187 187 193 198 204 213 223 237 260 278 289
5 4 4 2 358 355 355 353 352 355 358 360 1 2 3 2 360 0 7 14 16 16 13 3 352 344 342 341 338 331 325 321 318 318 320 322 324 325 324 316 301 296 299 303 304 303 299 296 298 299 294 285 280 283 290 295 296 296 291 281 268 253 238 230 227 220 208 198 189 182 179 181 184 184 181 180 183 190 198 208 224 247 269 281 288
359 359 359 357 354 353 352 351 353 356 360 5 9 8 7 7 3 2 2 0 360 5 12 13 9 0 352 347 343 338 332 328 323 317 315 317 321 325 327 322 311 304 302 303 303 302 299 295 296 299 297 290 285 288 295 300 301 298 288 278 266 250 233 219 208 198 190 184 179 174 175 177 176 173 172 174 179 187 196 210 229 248 261 270 277
356 356 354 352 352 351 349 351 359 2 4 7 8 6 6 6 3 2 2 360 359 1 3 4 4 1 355 351 351 352 352 348 342 335 328 326 327 328 327 324 316 307 301 300 300 299 297 294 293 294 292 286 282 287 295 300 299 288 278 270 258 237 210 187 175 171 168 166 165 166 170 170 167 166 170 173 176 184 198 214 230 243 254 264 273
354 353 350 350 351 350 349 355 4 6 5 4 2 3 8 8 4 3 1 358 356 357 356 355 353 351 350 352 356 1 4 1 354 347 340 336 335 332 328 323 316 306 299 295 293 291 291 292 289 285 280 275 274 282 291 294 284 270 262 253 228 195 174 162 160 162 164 165 167 168 168 167 166 167 169 171 174 181 193 208 225 241 258 270 275
353 350 348 351 351 349 351 1 5 2 1 2 1 4 10 10 7 5 3 0 357 354 350 349 347 344 344 347 352 358 2 2 357 350 344 342 345 344 340 335 328 319 313 308 301 296 295 295 286 270 254 250 262 274 283 284 266 251 242 225 198 177 168 165 168 171 174 175 176 172 167 164 164 163 165 170 175 176 180 195 219 242 262 273 265
352 349 349 349 349 348 353 3 3 358 359 4 6 6 8 10 8 4 0 360 359 355 348 344 343 343 344 345 346 349 353 356 356 357 359 2 5 8 9 7 4 358 348 335 319 306 300 294 278 257 247 255 270 272 268 259 243 230 217 201 185 176 172 172 173 174 174 175 172 166 160 159 161 162 163 167 170 167 166 181 206 230 254 251 124
349 348 347 346 346 347 353 3 6 1 358 4 8 6 6 8 6 1 356 354 354 353 350 348 350 352 351 347 343 341 344 350 356 1 10 17 17 15 15 17 19 18 12 3 349 325 302 285 271 264 267 279 282 272 257 237 219 206 194 185 177 170 168 168 166 163 164 162 156 151 150 152 155 157 158 159 159 154 156 170 175 156 128 91 78
346 346 344 343 344 346 349 360 8 4 357 357 1 1 2 4 1 357 354 351 349 351 358 6 11 8 360 353 348 344 344 348 355 4 15 21 16 9 9 16 23 23 17 14 14 5 340 310 296 303 314 310 292 271 241 213 200 190 179 172 168 163 159 158 155 151 149 144 139 138 141 143 145 149 149 144 138 135 145 163 137 106 93 83 71
343 343 340 340 344 346 346 350 357 359 355 350 351 354 359 0 356 352 351 350 352 4 21 30 27 19 13 10 9 7 5 4 5 8 15 18 12 8 11 18 24 23 18 15 17 17 8 355 346 343 341 329 294 250 215 200 193 185 174 168 167 164 158 153 146 137 131 127 126 130 137 140 139 141 136 121 111 106 108 115 110 99 90 86 78
341 338 336 340 346 347 344 341 343 346 340 328 330 350 359 358 354 349 348 353 10 36 47 45 35 27 26 27 24 21 19 18 16 13 13 14 15 14 15 16 17 16 15 14 15 16 16 13 5 345 328 312 237 195 191 188 185 181 176 172 167 156 144 134 125 118 117 118 121 128 134 136 138 136 119 93 72 78 100 107 107 102 97 97 95
338 334 335 344 349 348 343 340 339 338 333 321 311 356 359 356 353 349 349 1 49 65 55 47 37 31 32 35 34 31 28 24 20 15 13 17 23 18 13 11 9 6 5 8 12 15 17 18 19 5 317 221 168 158 163 170 174 174 171 161 141 126 120 115 111 109 110 110 111 111 111 116 120 110 82 59 61 86 103 105 102 98 101 114 115
333 332 339 349 351 348 349 351 349 346 349 4 106 56 2 0 357 349 349 11 72 70 55 49 41 34 34 36 37 37 34 29 24 20 17 21 26 22 15 13 8 1 359 2 9 20 29 31 36 42 54 140 159 155 153 151 147 139 129 119 113 113 112 108 107 107 105 100 92 80 75 92 104 82 61 75 88 102 112 113 112 115 127 144 138
326 333 346 353 351 350 357 360 358 3 34 78 107 70 17 13 2 352 353 23 75 66 55 52 44 36 36 38 38 37 35 33 34 37 40 44 46 42 34 26 15 6 4 4 5 16 38 47 52 61 73 94 116 124 123 120 117 115 113 111 110 110 108 106 107 109 105 95 71 45 49 102 123 106 104 104 104 114 122 124 132 144 146 133 128
319 337 350 353 349 349 358 2 4 21 68 86 84 47 23 17 5 355 356 43 82 68 58 53 43 37 42 46 43 40 37 37 42 49 54 57 57 53 46 39 32 30 37 43 43 53 68 74 76 80 85 90 97 105 112 115 115 116 117 116 114 112 111 109 110 108 96 70 38 38 99 150 140 125 126 118 107 112 116 112 113 130 127 108 96
306 333 347 353 352 350 355 2 9 30 74 90 77 45 24 12 1 353 357 74 85 69 58 50 39 38 50 56 52 47 43 43 48 53 55 55 55 53 51 51 52 54 60 67 71 75 78 79 79 81 83 85 87 91 98 104 108 111 113 114 115 116 119 120 120 110 89 77 103 139 154 146 130 127 127 112 100 101 104 98 90 98 111 103 83
296 319 335 351 357 357 359 5 13 27 59 91 89 57 7 343 347 359 36 81 80 68 57 48 41 44 54 60 58 55 52 51 53 55 55 54 53 51 51 54 57 61 66 70 72 73 74 75 76 77 78 80 82 84 87 92 96 96 99 104 110 117 121 123 120 115 116 130 148 151 141 129 126 127 119 105 96 93 95 92 84 81 90 95 79
284 302 319 343 357 3 6 10 15 20 33 70 92 56 338 328 359 79 95 91 82 73 62 52 48 51 56 57 56 56 55 55 55 56 56 55 55 55 55 57 61 65 68 69 70 70 70 70 71 73 74 77 80 82 85 90 93 92 94 102 107 108 107 105 111 121 127 131 132 128 122 119 121 121 114 105 99 94 89 86 79 72 76 84 69
274 288 304 329 348 1 7 13 18 17 17 29 51 359 337 359 102 123 123 109 97 87 70 58 58 61 60 56 52 53 54 55 56 57 57 57 57 58 58 60 63 66 68 68 67 68 70 71 73 76 78 80 81 82 83 86 90 94 100 105 108 109 111 114 117 118 117 115 114 113 113 113 116 117 114 106 99 89 80 74 68 57 59 64 53